TimeEST,TemperatureF,Dew PointF,Humidity,Sea Level PressureIn,VisibilityMPH,Wind Direction,Wind SpeedMPH,Gust SpeedMPH,PrecipitationIn,Events,Conditions,WindDirDegrees,DateUTC
12:54 AM,24.1,10.0,55,30.15,10.0,West,13.8,-,N/A,,Clear,270,2013-12-11 05:54:00
1:54 AM,24.1,10.0,55,30.18,10.0,West,13.8,21.9,N/A,,Clear,270,2013-12-11 06:54:00
2:54 AM,24.1,9.0,53,30.21,10.0,West,11.5,-,N/A,,Clear,270,2013-12-11 07:54:00
3:54 AM,24.1,10.0,55,30.22,10.0,West,13.8,-,N/A,,Clear,260,2013-12-11 08:54:00
4:54 AM,24.1,10.0,55,30.23,10.0,West,13.8,-,N/A,,Clear,260,2013-12-11 09:54:00
5:54 AM,23.0,10.0,58,30.27,10.0,West,11.5,-,N/A,,Clear,260,2013-12-11 10:54:00
6:54 AM,21.9,10.0,60,30.28,10.0,WSW,15.0,-,N/A,,Clear,240,2013-12-11 11:54:00
7:54 AM,21.9,10.0,60,30.31,10.0,WSW,12.7,-,N/A,,Clear,250,2013-12-11 12:54:00
8:54 AM,23.0,10.9,60,30.33,10.0,WSW,15.0,-,N/A,,Clear,250,2013-12-11 13:54:00
9:54 AM,25.0,10.9,55,30.33,10.0,West,12.7,23.0,N/A,,Clear,260,2013-12-11 14:54:00
10:54 AM,-9999,-9999,N/A,30.29,-9999.0,West,15.0,-,N/A,,Unknown,260,2013-12-11 15:54:00
11:54 AM,-9999,-9999,N/A,30.25,-9999.0,West,11.5,18.4,N/A,,Unknown,260,2013-12-11 16:54:00
12:54 PM,30.0,9.0,41,30.25,10.0,West,12.7,19.6,N/A,,Clear,260,2013-12-11 17:54:00
1:54 PM,30.0,10.0,43,30.23,10.0,WSW,11.5,-,N/A,,Mostly Cloudy,250,2013-12-11 18:54:00
2:54 PM,30.9,10.0,42,30.22,10.0,WSW,19.6,24.2,N/A,,Clear,250,2013-12-11 19:54:00
3:54 PM,30.0,12.0,47,30.22,10.0,West,11.5,-,N/A,,Overcast,260,2013-12-11 20:54:00
4:54 PM,28.0,14.0,56,30.24,10.0,West,11.5,19.6,N/A,,Mostly Cloudy,260,2013-12-11 21:54:00
5:54 PM,27.0,15.1,61,30.25,10.0,West,15.0,20.7,N/A,,Mostly Cloudy,270,2013-12-11 22:54:00
6:54 PM,26.1,16.0,66,30.26,10.0,West,9.2,-,N/A,,Mostly Cloudy,270,2013-12-11 23:54:00
7:54 PM,25.0,16.0,69,30.26,10.0,West,8.1,-,N/A,,Clear,270,2013-12-12 00:54:00
8:54 PM,24.1,16.0,71,30.26,10.0,West,4.6,-,N/A,,Partly Cloudy,270,2013-12-12 01:54:00
9:54 PM,23.0,16.0,74,30.25,10.0,Calm,Calm,-,N/A,,Overcast,0,2013-12-12 02:54:00
10:54 PM,23.0,16.0,74,30.23,10.0,Calm,Calm,-,N/A,,Mostly Cloudy,0,2013-12-12 03:54:00
11:54 PM,19.0,14.0,81,30.24,10.0,Calm,Calm,-,N/A,,Clear,0,2013-12-12 04:54:00